UCA4270 KIAH-KMFE

Flight info

Callsign UCA4270
Flight time N/A
Altitude 30000
Route RITAA7 NGP
Aircraft E45X/M-SABDFGRW/S

Departure

Time N/A
Airport George Bush Intercontinental Airport (KIAH)

Arrival

Time 2026-04-18 03:01
Airport McAllen Miller International Airport (KMFE)
Time Latitude Longitude Altitude Speed Heading
2026-04-18 02:25 28.39956 -96.43258 30002 ft 372 kts 230°
2026-04-18 02:26 28.36443 -96.47546 29992 ft 371 kts 230°
2026-04-18 02:26 28.32923 -96.51838 29986 ft 370 kts 230°
2026-04-18 02:27 28.29415 -96.56111 29980 ft 370 kts 230°
2026-04-18 02:27 28.25918 -96.60366 29985 ft 369 kts 230°
2026-04-18 02:28 28.22429 -96.64608 29989 ft 368 kts 230°
2026-04-18 02:28 28.18917 -96.68872 30000 ft 370 kts 230°
2026-04-18 02:29 28.15437 -96.73094 30001 ft 371 kts 230°
2026-04-18 02:29 28.11897 -96.77383 30002 ft 372 kts 230°
2026-04-18 02:30 28.08341 -96.81689 29999 ft 374 kts 230°
2026-04-18 02:30 28.04770 -96.86008 29999 ft 374 kts 230°
2026-04-18 02:31 28.01203 -96.90315 29996 ft 375 kts 230°
2026-04-18 02:31 27.97592 -96.94674 29992 ft 376 kts 230°
2026-04-18 02:32 27.93998 -96.99007 29981 ft 376 kts 229°
2026-04-18 02:32 27.90866 -97.02778 29987 ft 376 kts 230°
2026-04-18 02:33 27.87271 -97.07104 29991 ft 377 kts 229°
2026-04-18 02:33 27.83684 -97.11415 29989 ft 378 kts 229°
2026-04-18 02:34 27.82956 -97.12289 30013 ft 378 kts 230°
2026-04-18 02:34 27.79321 -97.16653 29998 ft 379 kts 230°
2026-04-18 02:35 27.75692 -97.21006 29995 ft 381 kts 230°
2026-04-18 02:35 27.72060 -97.25356 29980 ft 382 kts 230°
2026-04-18 02:36 27.68245 -97.29575 29975 ft 387 kts 221°
2026-04-18 02:36 27.63584 -97.32677 29976 ft 392 kts 214°
2026-04-18 02:37 27.58813 -97.35691 29978 ft 393 kts 214°
2026-04-18 02:37 27.56401 -97.37220 29587 ft 403 kts 214°
2026-04-18 02:37 27.53910 -97.38797 29093 ft 415 kts 213°
2026-04-18 02:37 27.51368 -97.40404 28590 ft 426 kts 213°
2026-04-18 02:38 27.48762 -97.42051 28093 ft 426 kts 213°
2026-04-18 02:38 27.46206 -97.43664 27579 ft 411 kts 213°
2026-04-18 02:38 27.43781 -97.45195 27077 ft 399 kts 213°
2026-04-18 02:38 27.41391 -97.46704 26566 ft 389 kts 213°
2026-04-18 02:39 27.39026 -97.48196 26051 ft 381 kts 213°
2026-04-18 02:39 27.36768 -97.49620 25548 ft 374 kts 213°
2026-04-18 02:39 27.34496 -97.51053 25039 ft 367 kts 213°
2026-04-18 02:39 27.32282 -97.52447 24534 ft 362 kts 213°
2026-04-18 02:40 27.30100 -97.53822 24033 ft 357 kts 213°
2026-04-18 02:40 27.27958 -97.55170 23536 ft 352 kts 213°
2026-04-18 02:40 27.25839 -97.56503 23042 ft 349 kts 213°
2026-04-18 02:40 27.23719 -97.57837 22546 ft 347 kts 212°
2026-04-18 02:41 27.21606 -97.59165 22049 ft 345 kts 212°
2026-04-18 02:41 27.19502 -97.60487 21554 ft 343 kts 212°
2026-04-18 02:41 27.17424 -97.61792 21066 ft 342 kts 213°
2026-04-18 02:41 27.15353 -97.63093 20576 ft 340 kts 213°
2026-04-18 02:42 27.13319 -97.64369 20091 ft 339 kts 212°
2026-04-18 02:42 27.11237 -97.65675 19598 ft 337 kts 212°
2026-04-18 02:42 27.09196 -97.66955 19118 ft 336 kts 212°
2026-04-18 02:42 27.07162 -97.68230 18639 ft 335 kts 212°
2026-04-18 02:43 27.05145 -97.69493 18161 ft 334 kts 212°
2026-04-18 02:43 27.03110 -97.70768 17679 ft 333 kts 212°
2026-04-18 02:43 27.01076 -97.72041 17195 ft 332 kts 212°
2026-04-18 02:43 26.99077 -97.73292 16720 ft 332 kts 212°
2026-04-18 02:44 26.97069 -97.74548 16240 ft 331 kts 212°
2026-04-18 02:44 26.95042 -97.75815 15758 ft 330 kts 212°
2026-04-18 02:44 26.93048 -97.77062 15278 ft 329 kts 212°
2026-04-18 02:44 26.91064 -97.78301 14807 ft 328 kts 211°
2026-04-18 02:45 26.89062 -97.79551 14328 ft 326 kts 211°
2026-04-18 02:45 26.87093 -97.80780 13853 ft 323 kts 211°
2026-04-18 02:45 26.85137 -97.82000 13364 ft 317 kts 211°
2026-04-18 02:45 26.83219 -97.83196 12885 ft 312 kts 211°
2026-04-18 02:46 26.81324 -97.84377 12402 ft 309 kts 210°
2026-04-18 02:46 26.79480 -97.85526 11929 ft 306 kts 210°
2026-04-18 02:46 26.77630 -97.86679 11472 ft 302 kts 210°
2026-04-18 02:46 26.75806 -97.87815 11069 ft 297 kts 210°
2026-04-18 02:47 26.73998 -97.88940 10699 ft 292 kts 210°
2026-04-18 02:47 26.72248 -97.90030 10343 ft 288 kts 210°
2026-04-18 02:47 26.70504 -97.91115 9984 ft 283 kts 209°
2026-04-18 02:47 26.68777 -97.92188 9624 ft 280 kts 209°
2026-04-18 02:48 26.67102 -97.93230 9271 ft 277 kts 208°
2026-04-18 02:48 26.65411 -97.94280 8909 ft 274 kts 208°
2026-04-18 02:48 26.63752 -97.95291 8554 ft 271 kts 206°
2026-04-18 02:48 26.62041 -97.96176 8197 ft 269 kts 204°
2026-04-18 02:49 26.60366 -97.97047 7928 ft 263 kts 205°
2026-04-18 02:49 26.58714 -97.97907 7682 ft 257 kts 205°
2026-04-18 02:49 26.57109 -97.98742 7436 ft 252 kts 205°
2026-04-18 02:49 26.55548 -97.99553 7195 ft 247 kts 204°
2026-04-18 02:50 26.53987 -98.00363 6940 ft 243 kts 205°
2026-04-18 02:50 26.52461 -98.01156 6688 ft 240 kts 204°
2026-04-18 02:50 26.50952 -98.01940 6435 ft 237 kts 204°
2026-04-18 02:50 26.49439 -98.02726 6210 ft 239 kts 204°
2026-04-18 02:51 26.47899 -98.03423 5979 ft 238 kts 199°
2026-04-18 02:51 26.46397 -98.04176 5775 ft 236 kts 216°
2026-04-18 02:51 26.45381 -98.05574 5792 ft 228 kts 242°
2026-04-18 02:51 26.44755 -98.07176 5797 ft 230 kts 245°
2026-04-18 02:52 26.44120 -98.08843 5805 ft 233 kts 244°
2026-04-18 02:52 26.43481 -98.10506 5806 ft 236 kts 244°
2026-04-18 02:52 26.42834 -98.12185 5805 ft 235 kts 245°
2026-04-18 02:52 26.42190 -98.13860 5803 ft 235 kts 244°
2026-04-18 02:53 26.41542 -98.15552 5800 ft 234 kts 243°
2026-04-18 02:53 26.40886 -98.17200 5799 ft 234 kts 245°
2026-04-18 02:53 26.40236 -98.18885 5797 ft 233 kts 244°
2026-04-18 02:53 26.39600 -98.20536 5793 ft 233 kts 244°
2026-04-18 02:54 26.38954 -98.22204 5792 ft 233 kts 244°
2026-04-18 02:54 26.38317 -98.23856 5792 ft 233 kts 245°
2026-04-18 02:54 26.37679 -98.25515 5790 ft 232 kts 245°
2026-04-18 02:54 26.37038 -98.27182 5785 ft 233 kts 244°
2026-04-18 02:55 26.36390 -98.28886 5505 ft 246 kts 244°
2026-04-18 02:55 26.35726 -98.30673 5150 ft 248 kts 245°
2026-04-18 02:55 26.35076 -98.32463 4790 ft 250 kts 244°
2026-04-18 02:55 26.34335 -98.34198 4443 ft 246 kts 230°
2026-04-18 02:56 26.33084 -98.35397 4101 ft 236 kts 201°
2026-04-18 02:56 26.31508 -98.35838 3736 ft 227 kts 180°
2026-04-18 02:56 26.29159 -98.34447 3022 ft 181 kts 138°
2026-04-18 02:57 26.28227 -98.33611 2695 ft 164 kts 143°
2026-04-18 02:57 26.27383 -98.32861 2411 ft 148 kts 142°
2026-04-18 02:57 26.26612 -98.32167 2219 ft 141 kts 142°
2026-04-18 02:57 26.25861 -98.31488 2007 ft 134 kts 141°
2026-04-18 02:58 26.25168 -98.30859 1819 ft 125 kts 141°
2026-04-18 02:58 26.24475 -98.30231 1664 ft 129 kts 141°
2026-04-18 02:58 26.23793 -98.29611 1483 ft 123 kts 141°
2026-04-18 02:58 26.23154 -98.29031 1323 ft 111 kts 141°
2026-04-18 02:59 26.22571 -98.28503 1179 ft 108 kts 141°
2026-04-18 02:59 26.21983 -98.27969 1036 ft 110 kts 141°
2026-04-18 02:59 26.21359 -98.27404 901 ft 119 kts 141°
2026-04-18 02:59 26.20695 -98.26811 855 ft 120 kts 142°
2026-04-18 03:00 26.20061 -98.26238 691 ft 119 kts 140°
2026-04-18 03:00 26.19412 -98.25635 544 ft 122 kts 141°
2026-04-18 03:00 26.18749 -98.25041 351 ft 122 kts 140°
2026-04-18 03:00 26.18095 -98.24448 127 ft 115 kts 141°
2026-04-18 03:01 26.17552 -98.23955 102 ft 80 kts 140°
2026-04-18 03:01 26.17229 -98.23663 100 ft 38 kts 140°
2026-04-18 03:01 26.17061 -98.23511 99 ft 20 kts 141°
2026-04-18 03:01 26.17000 -98.23409 99 ft 13 kts 71°
2026-04-18 03:02 26.17073 -98.23365 99 ft 13 kts 333°
2026-04-18 03:02 26.17151 -98.23438 99 ft 15 kts 320°
2026-04-18 03:02 26.17243 -98.23521 100 ft 18 kts 321°
2026-04-18 03:02 26.17335 -98.23606 101 ft 10 kts 321°
2026-04-18 03:03 26.17402 -98.23666 101 ft 13 kts 321°
2026-04-18 03:03 26.17489 -98.23745 102 ft 18 kts 321°
2026-04-18 03:03 26.17597 -98.23843 102 ft 19 kts 321°
2026-04-18 03:03 26.17683 -98.23923 103 ft 16 kts 321°
2026-04-18 03:04 26.17778 -98.24006 103 ft 12 kts 326°
2026-04-18 03:04 26.17871 -98.24018 104 ft 14 kts 340°
2026-04-18 03:04 26.17955 -98.24075 104 ft 10 kts 339°
2026-04-18 03:04 26.18000 -98.24065 104 ft 2 kts 97°
2026-04-18 03:05 26.17995 -98.24041 104 ft 1 kts 83°
2026-04-18 03:05 26.17995 -98.24026 104 ft 3 kts 89°
2026-04-18 03:05 26.17995 -98.24022 104 ft 0 kts 88°